When you browse on this site, cookies collect data to enhance your experience and personalize the content and advertising you see.
Visit our Privacy Policy to learn more. By continuing to use the site, you agree to this use of cookies and data.
  • In Austria
  • List of Countries
  • For 7 days
  • Water Temperature
  • Satellite Maps
  • Weather Map
  • News
  • Weather Widgets
  • user-avatar
    Login

    Hourly Weather Innsbruck

    Today, 26 March, Tuesday

    Time Temperature Precipitation Wind Pressure Humidity
    00:00 -10°C° 0.1 mm 2 mps 593 mmHg 91%
    01:00 -9°C° 0 mm 1 mps 593 mmHg 89%
    02:00 -10°C° 0.2 mm 2 mps 593 mmHg 89%
    03:00 -10°C° 0.2 mm 2 mps 594 mmHg 90%
    04:00 -10°C° 0.2 mm 2 mps 594 mmHg 90%
    05:00 -12°C° 0.1 mm 2 mps 594 mmHg 90%
    06:00 -12°C° 0.1 mm 2 mps 595 mmHg 89%
    07:00 -12°C° 0.1 mm 2 mps 595 mmHg 89%
    08:00 -9°C° 0 mm 2 mps 596 mmHg 81%
    09:00 -8°C° 0 mm 2 mps 596 mmHg 73%
    10:00 -6°C° 0 mm 2 mps 597 mmHg 65%
    11:00 -6°C° 0 mm 2 mps 597 mmHg 64%
    12:00 -5°C° 0 mm 2 mps 597 mmHg 63%
    13:00 -5°C° 0 mm 3 mps 598 mmHg 62%
    14:00 -5°C° 0 mm 3 mps 597 mmHg 63%
    15:00 -4°C° 0 mm 2 mps 597 mmHg 64%
    16:00 -5°C° 0 mm 2 mps 597 mmHg 65%
    17:00 -6°C° 0 mm 2 mps 596 mmHg 74%
    18:00 -8°C° 0 mm 2 mps 596 mmHg 83%
    19:00 -9°C° 0 mm 1 mps 595 mmHg 91%
    20:00 -9°C° 0 mm 1 mps 596 mmHg 92%
    21:00 -10°C° 0 mm 1 mps 596 mmHg 92%
    22:00 -10°C° 0 mm 1 mps 597 mmHg 93%
    23:00 -10°C° 0 mm 1 mps 597 mmHg 92%

    Tomorrow, 27 March, Wednesday

    Time Temperature Precipitation Wind Pressure Humidity
    00:00 -10°C° 0 mm 1 mps 597 mmHg 91%
    01:00 -11°C° 0 mm 1 mps 597 mmHg 90%
    02:00 -11°C° 0 mm 1 mps 597 mmHg 87%
    03:00 -10°C° 0 mm 1 mps 597 mmHg 85%
    04:00 -10°C° 0 mm 1 mps 596 mmHg 82%
    05:00 -10°C° 0 mm 1 mps 597 mmHg 81%
    06:00 -9°C° 0 mm 1 mps 597 mmHg 79%
    07:00 -9°C° 0 mm 1 mps 598 mmHg 78%
    08:00 -7°C° 0 mm 1 mps 598 mmHg 76%
    09:00 -6°C° 0 mm 2 mps 599 mmHg 74%
    10:00 -4°C° 0 mm 2 mps 600 mmHg 72%
    11:00 -4°C° 0 mm 2 mps 600 mmHg 72%
    12:00 -3°C° 0 mm 2 mps 600 mmHg 73%
    13:00 -3°C° 0 mm 2 mps 600 mmHg 73%
    14:00 -3°C° 0 mm 2 mps 600 mmHg 74%
    15:00 -3°C° 0 mm 2 mps 600 mmHg 74%
    16:00 -3°C° 0 mm 2 mps 600 mmHg 75%
    17:00 -4°C° 0 mm 2 mps 599 mmHg 81%
    18:00 -6°C° 0 mm 2 mps 599 mmHg 87%
    19:00 -6°C° 0 mm 1 mps 599 mmHg 94%
    20:00 -7°C° 0 mm 1 mps 599 mmHg 94%
    21:00 -7°C° 0 mm 1 mps 599 mmHg 94%
    22:00 -7°C° 0 mm 1 mps 600 mmHg 94%
    23:00 -7°C° 0 mm 1 mps 600 mmHg 92%

    Day after tomorrow, 28 March, Thursday

    Time Temperature Precipitation Wind Pressure Humidity
    00:00 -8°C° 0 mm 1 mps 600 mmHg 91%
    01:00 -8°C° 0 mm 1 mps 599 mmHg 90%
    02:00 -8°C° 0 mm 1 mps 599 mmHg 88%
    03:00 -8°C° 0 mm 1 mps 599 mmHg 86%
    04:00 -8°C° 0 mm 1 mps 599 mmHg 84%
    05:00 -7°C° 0 mm 1 mps 600 mmHg 82%
    06:00 -7°C° 0 mm 1 mps 600 mmHg 81%
    07:00 -6°C° 0 mm 1 mps 601 mmHg 79%
    08:00 -3°C° 0 mm 1 mps 601 mmHg 78%
    09:00 -3°C° 0 mm 2 mps 602 mmHg 77%
    10:00 -1°C° 0 mm 2 mps 603 mmHg 76%
    11:00 -1°C° 0.1 mm 2 mps 603 mmHg 76%
    12:00 +1°C° 0.1 mm 2 mps 603 mmHg 76%
    13:00 +2°C° 0.1 mm 2 mps 603 mmHg 75%
    14:00 +1°C° 0.1 mm 2 mps 603 mmHg 77%
    15:00 +1°C° 0.1 mm 2 mps 602 mmHg 79%
    16:00 -1°C° 0.1 mm 3 mps 602 mmHg 81%
    17:00 -2°C° 0.1 mm 2 mps 602 mmHg 86%
    18:00 -3°C° 0.1 mm 2 mps 601 mmHg 91%
    19:00 -2°C° 0.1 mm 1 mps 601 mmHg 96%
    20:00 -3°C° 0 mm 1 mps 601 mmHg 96%
    21:00 -3°C° 0 mm 1 mps 602 mmHg 96%
    22:00 -4°C° 0 mm 1 mps 602 mmHg 96%
    23:00 -4°C° 0 mm 1 mps 602 mmHg 95%

    29 March, Friday

    Time Temperature Precipitation Wind Pressure Humidity
    00:00 -6°C° 0 mm 1 mps 601 mmHg 94%
    01:00 -6°C° 0 mm 1 mps 601 mmHg 93%
    02:00 -7°C° 0 mm 1 mps 601 mmHg 89%
    03:00 -7°C° 0 mm 1 mps 601 mmHg 86%
    04:00 -7°C° 0 mm 1 mps 601 mmHg 82%
    05:00 -7°C° 0 mm 2 mps 601 mmHg 79%
    06:00 -7°C° 0 mm 2 mps 601 mmHg 76%
    07:00 -6°C° 0 mm 2 mps 601 mmHg 73%
    08:00 -4°C° 0 mm 2 mps 602 mmHg 67%
    09:00 +1°C° 0 mm 1 mps 604 mmHg 62%
    10:00 +4°C° 0 mm 1 mps 605 mmHg 56%
    11:00 +5°C° 0 mm 1 mps 605 mmHg 56%
    12:00 +6°C° 0 mm 1 mps 605 mmHg 55%
    13:00 +7°C° 0 mm 1 mps 605 mmHg 55%
    14:00 +7°C° 0 mm 1 mps 604 mmHg 55%
    15:00 +6°C° 0 mm 1 mps 604 mmHg 55%
    16:00 +6°C° 0 mm 1 mps 603 mmHg 55%
    17:00 +4°C° 0 mm 1 mps 602 mmHg 60%
    18:00 +1°C° 0 mm 1 mps 601 mmHg 64%
    19:00 -1°C° 0 mm 1 mps 600 mmHg 69%
    20:00 -2°C° 0 mm 1 mps 601 mmHg 64%
    21:00 -4°C° 0 mm 2 mps 601 mmHg 60%
    22:00 -5°C° 0 mm 2 mps 601 mmHg 56%
    23:00 -5°C° 0 mm 2 mps 600 mmHg 54%

    30 March, Saturday

    Time Temperature Precipitation Wind Pressure Humidity
    00:00 -5°C° 0 mm 2 mps 600 mmHg 52%
    01:00 -6°C° 0 mm 3 mps 600 mmHg 51%
    02:00 -5°C° 0 mm 2 mps 600 mmHg 50%
    03:00 -6°C° 0 mm 2 mps 600 mmHg 49%
    04:00 -6°C° 0 mm 2 mps 599 mmHg 48%
    05:00 -5°C° 0 mm 2 mps 599 mmHg 46%
    06:00 -5°C° 0 mm 2 mps 599 mmHg 44%
    07:00 -4°C° 0 mm 2 mps 600 mmHg 43%
    08:00 +1°C° 0 mm 1 mps 600 mmHg 44%
    09:00 +3°C° 0 mm 1 mps 601 mmHg 46%
    10:00 +5°C° 0 mm 0 mps 602 mmHg 47%
    11:00 +6°C° 0 mm 0 mps 602 mmHg 47%
    12:00 +8°C° 0 mm 1 mps 602 mmHg 46%
    13:00 +9°C° 0 mm 1 mps 602 mmHg 46%
    14:00 +8°C° 0 mm 1 mps 601 mmHg 47%
    15:00 +8°C° 0 mm 1 mps 601 mmHg 49%
    16:00 +7°C° 0 mm 1 mps 600 mmHg 50%
    17:00 +4°C° 0 mm 0 mps 599 mmHg 59%
    18:00 +1°C° 0 mm 0 mps 598 mmHg 68%
    19:00 -1°C° 0 mm 0 mps 596 mmHg 76%
    20:00 -2°C° 0 mm 0 mps 596 mmHg 77%
    21:00 -1°C° 0 mm 1 mps 596 mmHg 78%
    22:00 -1°C° 0 mm 1 mps 596 mmHg 78%
    23:00 -2°C° 0 mm 1 mps 596 mmHg 79%

    31 March, Sunday

    Time Temperature Precipitation Wind Pressure Humidity
    00:00 -2°C° 0 mm 1 mps 596 mmHg 79%
    01:00 -2°C° 0 mm 1 mps 596 mmHg 79%
    02:00 -2°C° 0 mm 1 mps 595 mmHg 82%
    03:00 -2°C° 0 mm 1 mps 595 mmHg 86%
    04:00 -2°C° 0 mm 1 mps 595 mmHg 90%
    05:00 -2°C° 0 mm 1 mps 595 mmHg 90%
    06:00 -1°C° 0 mm 1 mps 595 mmHg 91%
    07:00 0°C° 0 mm 1 mps 596 mmHg 91%
    08:00 +1°C° 0.1 mm 1 mps 596 mmHg 83%
    09:00 +1°C° 0.1 mm 2 mps 596 mmHg 75%
    10:00 +3°C° 0.1 mm 2 mps 596 mmHg 67%
    11:00 +3°C° 0.1 mm 2 mps 596 mmHg 65%
    12:00 +4°C° 0.1 mm 2 mps 596 mmHg 64%
    13:00 +4°C° 0.1 mm 2 mps 596 mmHg 62%
    14:00 +4°C° 0.2 mm 2 mps 595 mmHg 65%
    15:00 +3°C° 0.2 mm 2 mps 595 mmHg 67%
    16:00 +3°C° 0.2 mm 2 mps 594 mmHg 70%
    17:00 +2°C° 0.4 mm 2 mps 594 mmHg 78%
    18:00 -1°C° 0.4 mm 2 mps 594 mmHg 85%
    19:00 -2°C° 0.4 mm 2 mps 594 mmHg 93%
    20:00 -2°C° 0.4 mm 2 mps 594 mmHg 94%
    21:00 -3°C° 0.4 mm 2 mps 594 mmHg 94%
    22:00 -1°C° 0.4 mm 1 mps 594 mmHg 95%
    23:00 -3°C° 0.2 mm 2 mps 594 mmHg 96%
    Show more